Regional Weather Roundup
Issued by NWS Albany, NY

Home | Current Version | Previous Version | Graphics & Text | Print | Product List | Glossary Off
Versions: 1 2 3 4 5 6 7 8 9 10 11 12 13 14 15 16 17 18 19 20 21 22 23 24 25 26 27

000
ASUS41 KALY 112310
RWRALY

NEW YORK STATE HOURLY WEATHER ROUNDUP
NATIONAL WEATHER SERVICE ALBANY NY
600 PM EST MON DEC 11 2017

NOTE: "FAIR" INDICATES FEW OR NO CLOUDS BELOW 12,000 FEET WITH NO
SIGNIFICANT WEATHER AND/OR NO OBSTRUCTIONS TO VISIBILITY.

NYZ032-033-038>043-046>054-057>066-NYZ062>081-082-084-120000-
EAST


CITY           SKY/WX    TMP DP  RH WIND       PRES   REMARKS
ALBANY         CLOUDY    30  18  60 N7        30.01S WCI  23
GLENS FALLS    CLOUDY    27  20  75 E8        30.00F WCI  19
POUGHKEEPSIE   CLOUDY    34  20  56 CALM      29.97F
NEWBURGH       MOCLDY    34  21  60 CALM      29.97F
MONTGOMERY     CLOUDY    32  24  72 CALM      29.96R
WHITE PLAINS   PTCLDY    34  20  56 CALM      29.98R
ISLIP          CLOUDY    34  23  64 CALM      30.01R
NEW YORK CITY  MOCLDY    40  20  44 SW7       30.01R
CENTRAL PARK   CLOUDY    38  21  50 VRB3      30.02S
$$

NYZ005>009-017-018-044>046-055-056-120000-
CENTRAL


CITY           SKY/WX    TMP DP  RH WIND       PRES   REMARKS
FULTON         CLOUDY    22  17  81 E3        29.96F
SYRACUSE       CLOUDY    24  19  81 E7        29.96F WCI  16
ROME           CLOUDY    24  17  74 CALM      29.99F
ELMIRA         CLOUDY    32  23  69 E3        29.89F
BINGHAMTON     CLOUDY    27  20  75 S3        29.88S
$$

NYZ026>034-041>043-087-120000-
NORTH


CITY           SKY/WX    TMP DP  RH WIND       PRES   REMARKS
WATERTOWN      CLOUDY    19  12  74 E5        29.98F WCI  12
FORT DRUM      NOT AVBL
OGDENSBURG     FAIR      19  10  68 CALM      30.00F
MASSENA        CLOUDY    16   7  67 NE7       30.04F WCI   6
SARANAC LAKE   CLOUDY    10   8  92 CALM      29.89F
PLATTSBURGH    CLOUDY    17   7  64 N5        30.05R WCI  10
$$

NYZ001>004-010>016-019>021-085-120000-
WEST


CITY           SKY/WX    TMP DP  RH WIND       PRES   REMARKS
NIAGARA FALLS  LGT SNOW  26  20  77 E6        29.88F WCI  19
BUFFALO        FLURRIES  25  22  88 E7        29.86F WCI  17
DUNKIRK        FLURRIES  25  25 100 CALM      29.86F
JAMESTOWN      CLOUDY    25  23  93 S3        29.80F
WELLSVILLE     LGT SNOW  27  20  75 S5        29.82F WCI  22
ROCHESTER      LGT SNOW  24  20  84 E9        29.92F FOG     WCI  14
PENN YAN       LGT SNOW  26  21  81 NE3       29.90F
$$

             KEY
       WCI = WIND CHILL INDEX
       VSB = VISIBILITY
       HX  = HEAT INDEX
$$




USA.gov is the U.S. government's official web portal to all federal, state and local government web resources and services.